Location: Cheching
(60.0667°N, 164.2167°W)
Time: 01:07:04
(UTC+00:00)

ESTCUBE 1 - Visible Passes

Search period start: 24 January 2021 00:00
Search period end: 03 February 2021 00:00
Orbit: 647 x 659 km, 98.0° (Epoch: 23 January)

Date Brightness Start Highest point End Pass type
(mag) Time Alt. Az. Time Alt. Az. Time Alt. Az.
31 Jan ? 07:08:58 11° N 07:08:58 11° N 07:09:07 10° N visible
01 Feb ? 07:36:45 11° N 07:36:45 11° N 07:37:00 10° N visible
02 Feb ? 08:04:31 11° N 08:04:31 11° N 08:04:47 10° N visible
